EN

Hourly Weather Tomarovka

Today, 11 April, Sunday

Time Temperature Precipitation Wind Pressure Humidity
00:00 +5°C° 0 mm 2 mps 754 mmHg 58%
01:00 +5°C° 0 mm 2 mps 754 mmHg 60%
02:00 +4°C° 0 mm 2 mps 755 mmHg 61%
03:00 +4°C° 0 mm 2 mps 755 mmHg 62%
04:00 +4°C° 0 mm 2 mps 755 mmHg 64%
05:00 +2°C° 0 mm 3 mps 755 mmHg 65%
06:00 +4°C° 0 mm 3 mps 755 mmHg 60%
07:00 +7°C° 0 mm 3 mps 756 mmHg 55%
08:00 +7°C° 0 mm 4 mps 756 mmHg 51%
09:00 +8°C° 0 mm 4 mps 756 mmHg 46%
10:00 +11°C° 0 mm 4 mps 756 mmHg 42%
11:00 +12°C° 0 mm 4 mps 756 mmHg 37%
12:00 +12°C° 0 mm 5 mps 755 mmHg 36%
13:00 +13°C° 0 mm 5 mps 755 mmHg 34%
14:00 +14°C° 0 mm 5 mps 755 mmHg 33%
15:00 +13°C° 0 mm 5 mps 755 mmHg 36%
16:00 +13°C° 0 mm 5 mps 755 mmHg 38%
17:00 +12°C° 0 mm 5 mps 754 mmHg 41%
18:00 +10°C° 0 mm 5 mps 754 mmHg 46%
19:00 +10°C° 0 mm 4 mps 755 mmHg 50%
20:00 +8°C° 0 mm 4 mps 755 mmHg 54%
21:00 +7°C° 0 mm 4 mps 755 mmHg 56%
22:00 +7°C° 0 mm 4 mps 754 mmHg 58%
23:00 +6°C° 0 mm 4 mps 754 mmHg 60%

Tomorrow, 12 April, Monday

Time Temperature Precipitation Wind Pressure Humidity
00:00 +6°C° 0 mm 4 mps 754 mmHg 63%
01:00 +6°C° 0 mm 5 mps 754 mmHg 65%
02:00 +6°C° 0 mm 5 mps 754 mmHg 68%
03:00 +6°C° 0 mm 5 mps 753 mmHg 72%
04:00 +6°C° 0 mm 4 mps 753 mmHg 76%
05:00 +6°C° 0 mm 4 mps 753 mmHg 80%
06:00 +7°C° 0 mm 5 mps 753 mmHg 81%
07:00 +7°C° 0 mm 5 mps 753 mmHg 82%
08:00 +8°C° 0 mm 5 mps 753 mmHg 83%
09:00 +10°C° 0 mm 6 mps 752 mmHg 76%
10:00 +14°C° 0 mm 6 mps 752 mmHg 70%
11:00 +16°C° 0 mm 6 mps 752 mmHg 64%
12:00 +17°C° 0 mm 6 mps 751 mmHg 58%
13:00 +19°C° 0 mm 6 mps 751 mmHg 52%
14:00 +21°C° 0 mm 6 mps 751 mmHg 46%
15:00 +20°C° 0 mm 5 mps 751 mmHg 46%
16:00 +20°C° 0 mm 5 mps 750 mmHg 47%
17:00 +20°C° 0 mm 4 mps 750 mmHg 47%
18:00 +19°C° 0 mm 4 mps 750 mmHg 52%
19:00 +17°C° 0 mm 4 mps 751 mmHg 56%
20:00 +16°C° 0 mm 3 mps 751 mmHg 60%
21:00 +14°C° 0 mm 3 mps 751 mmHg 63%
22:00 +13°C° 0 mm 3 mps 751 mmHg 66%
23:00 +13°C° 0 mm 3 mps 751 mmHg 69%

Day after tomorrow, 13 April, Tuesday

Time Temperature Precipitation Wind Pressure Humidity
00:00 +12°C° 0 mm 3 mps 751 mmHg 72%
01:00 +11°C° 0 mm 3 mps 751 mmHg 75%
02:00 +11°C° 0 mm 3 mps 751 mmHg 78%
03:00 +10°C° 0 mm 3 mps 751 mmHg 80%
04:00 +10°C° 0 mm 3 mps 751 mmHg 81%
05:00 +10°C° 0 mm 3 mps 751 mmHg 83%
06:00 +11°C° 0 mm 4 mps 751 mmHg 76%
07:00 +13°C° 0 mm 5 mps 751 mmHg 69%
08:00 +14°C° 0 mm 6 mps 751 mmHg 62%
09:00 +15°C° 0 mm 6 mps 751 mmHg 57%
10:00 +16°C° 0 mm 6 mps 751 mmHg 53%
11:00 +17°C° 0 mm 6 mps 751 mmHg 48%
12:00 +19°C° 0 mm 6 mps 751 mmHg 45%
13:00 +20°C° 0 mm 6 mps 750 mmHg 41%
14:00 +20°C° 0 mm 6 mps 750 mmHg 38%
15:00 +19°C° 0 mm 6 mps 750 mmHg 43%
16:00 +17°C° 0 mm 5 mps 750 mmHg 49%
17:00 +17°C° 0 mm 4 mps 750 mmHg 54%
18:00 +15°C° 0 mm 4 mps 750 mmHg 57%
19:00 +14°C° 0 mm 4 mps 750 mmHg 61%
20:00 +14°C° 0 mm 4 mps 750 mmHg 64%
21:00 +13°C° 0 mm 3 mps 750 mmHg 68%
22:00 +12°C° 0 mm 3 mps 750 mmHg 72%
23:00 +13°C° 0 mm 2 mps 750 mmHg 77%

14 April, Wednesday

Time Temperature Precipitation Wind Pressure Humidity
00:00 +12°C° 0 mm 2 mps 750 mmHg 78%
01:00 +12°C° 0 mm 2 mps 750 mmHg 79%
02:00 +12°C° 0 mm 2 mps 749 mmHg 81%
03:00 +12°C° 0 mm 2 mps 749 mmHg 82%
04:00 +10°C° 0 mm 2 mps 749 mmHg 83%
05:00 +10°C° 0 mm 2 mps 749 mmHg 85%
06:00 +11°C° 0 mm 3 mps 749 mmHg 79%
07:00 +13°C° 0 mm 3 mps 748 mmHg 73%
08:00 +14°C° 0 mm 3 mps 748 mmHg 67%
09:00 +14°C° 0.1 mm 4 mps 748 mmHg 66%
10:00 +14°C° 0.1 mm 4 mps 748 mmHg 65%
11:00 +15°C° 0.1 mm 5 mps 748 mmHg 65%
12:00 +15°C° 0.2 mm 5 mps 748 mmHg 63%
13:00 +15°C° 0.2 mm 5 mps 748 mmHg 61%
14:00 +15°C° 0.2 mm 5 mps 748 mmHg 59%
15:00 +15°C° 0 mm 5 mps 747 mmHg 61%
16:00 +15°C° 0 mm 4 mps 747 mmHg 64%
17:00 +14°C° 0 mm 3 mps 747 mmHg 66%
18:00 +14°C° 0 mm 2 mps 747 mmHg 72%
19:00 +13°C° 0 mm 2 mps 747 mmHg 79%
20:00 +12°C° 0 mm 1 mps 747 mmHg 85%
21:00 +12°C° 0 mm 1 mps 747 mmHg 84%
22:00 +12°C° 0 mm 1 mps 747 mmHg 84%
23:00 +11°C° 0 mm 1 mps 747 mmHg 83%

15 April, Thursday

Time Temperature Precipitation Wind Pressure Humidity
00:00 +11°C° 0 mm 1 mps 747 mmHg 82%
01:00 +11°C° 0 mm 1 mps 746 mmHg 82%
02:00 +11°C° 0 mm 1 mps 746 mmHg 81%
03:00 +11°C° 0 mm 1 mps 746 mmHg 81%
04:00 +11°C° 0 mm 1 mps 746 mmHg 80%
05:00 +11°C° 0 mm 1 mps 746 mmHg 80%
06:00 +12°C° 0 mm 1 mps 746 mmHg 74%
07:00 +13°C° 0 mm 1 mps 746 mmHg 68%
08:00 +15°C° 0 mm 1 mps 746 mmHg 61%
09:00 +16°C° 0 mm 2 mps 746 mmHg 56%
10:00 +17°C° 0 mm 2 mps 746 mmHg 50%
11:00 +18°C° 0 mm 2 mps 745 mmHg 44%
12:00 +19°C° 0 mm 2 mps 745 mmHg 42%
13:00 +19°C° 0 mm 3 mps 745 mmHg 40%
14:00 +20°C° 0 mm 3 mps 744 mmHg 38%
15:00 +18°C° 0.1 mm 3 mps 744 mmHg 46%
16:00 +17°C° 0.1 mm 3 mps 744 mmHg 54%
17:00 +16°C° 0.1 mm 3 mps 744 mmHg 61%
18:00 +14°C° 0.1 mm 3 mps 744 mmHg 64%
19:00 +14°C° 0.1 mm 3 mps 744 mmHg 66%
20:00 +13°C° 0.1 mm 3 mps 744 mmHg 68%
21:00 +13°C° 0.1 mm 3 mps 744 mmHg 70%
22:00 +13°C° 0.1 mm 3 mps 743 mmHg 72%
23:00 +12°C° 0.1 mm 3 mps 743 mmHg 74%

16 April, Friday

Time Temperature Precipitation Wind Pressure Humidity
00:00 +12°C° 0.1 mm 3 mps 743 mmHg 78%
01:00 +12°C° 0.1 mm 2 mps 743 mmHg 81%
02:00 +12°C° 0.1 mm 2 mps 743 mmHg 84%
03:00 +12°C° 0.1 mm 2 mps 743 mmHg 85%
04:00 +10°C° 0.1 mm 3 mps 743 mmHg 86%
05:00 +10°C° 0.1 mm 3 mps 743 mmHg 87%
06:00 +10°C° 0.4 mm 3 mps 744 mmHg 85%
07:00 +12°C° 0.4 mm 2 mps 744 mmHg 83%
08:00 +12°C° 0.4 mm 2 mps 744 mmHg 81%
09:00 +12°C° 0.3 mm 3 mps 744 mmHg 75%
10:00 +13°C° 0.3 mm 3 mps 744 mmHg 68%
11:00 +14°C° 0.3 mm 4 mps 744 mmHg 62%
12:00 +14°C° 0.5 mm 4 mps 744 mmHg 63%
13:00 +14°C° 0.5 mm 4 mps 744 mmHg 64%
14:00 +14°C° 0.5 mm 3 mps 745 mmHg 64%
15:00 +14°C° 0.2 mm 3 mps 745 mmHg 66%
16:00 +13°C° 0.2 mm 3 mps 745 mmHg 67%
17:00 +14°C° 0.2 mm 2 mps 745 mmHg 69%
18:00 +13°C° 0 mm 2 mps 746 mmHg 71%
19:00 +12°C° 0 mm 2 mps 746 mmHg 73%
20:00 +10°C° 0 mm 2 mps 746 mmHg 76%
21:00 +10°C° 0.1 mm 2 mps 747 mmHg 78%
22:00 +10°C° 0.1 mm 2 mps 747 mmHg 80%
23:00 +9°C° 0.1 mm 2 mps 747 mmHg 81%
Show more

We Need Your Consent

Meteoprog and our Service Providers may store and access personal data such as cookies, device identifiers or other similar technologies on your device and process such data to personalise content and ads, as well as provide social media features and to analyse the traffic.

  • Store and/or access information on your device

    Cookies, device identifiers or other information can be stored or accessed on your device for the purposes indicated above.

  • Personalised ads and content, ad and content measurement, audience insights, and products development

    Ads and content can be personalised based on a profile. More data can be added to better personalise ads and content. Ad and content performance can be measured. Insights about the audience who saw the ads and content can be derived. Such data can be used to develop or improve user’s experience, systems and software.

By clicking ‘I Agree’ you will allow the use of indicated cookies, device identifiers, web beacons or other similar technologies. Your settings can be changed in the browser on your device.

For certain purposes, legitimate interests may be relied on, rather than consent. You can read more about this in our Privacy and Cookie Policy.